Location: Cran-Gévrier
(45.9039°N, 6.1012°E)
Time: 01:07:05
(UTC+00:00)

STRAND 1 - Pass Details

Date: 10 December 2023
Orbit: 766 x 778 km, 98.4° (Epoch: 03 March)

Event Time Altitude Azimuth Distance (km) Brightness Sun altitude
Exits shadow 20:09:42 12° 285° (WNW) 2,173 ? -44.0°
Drops below altitude 10° 20:10:35 10° 276° (W) 2,311 ? -44.1°
Sets 20:14:03 0° 250° (WSW) 3,235 ? -44.7°
